UAL1960 KEWR-KSFO

Flight info

Callsign UAL1960
Flight time 5h 29m
Altitude 34000
Route COATE Q436 RAAKK Q438 RUBYY BAE FSD/N0485F360 DDY MLD MYBAD Q132 ANAHO LEGGS BDEGA4
Aircraft B77W/H-SDE1E2E3FGHIJ2J3J4J5M1RWXY/LB1D1

Departure

Time 2026-05-07 11:31
Airport Newark Liberty International Airport (KEWR)

Arrival

Time 2026-05-07 17:01
Airport San Francisco International Airport (KSFO)
Time Latitude Longitude Altitude Speed Heading
2026-05-07 11:01 40.69247 -74.17352 21 ft 0 kts 257°
2026-05-07 11:24 40.69248 -74.17347 21 ft 2 kts 257°
2026-05-07 11:24 40.69251 -74.17325 22 ft 2 kts 257°
2026-05-07 11:25 40.69256 -74.17301 25 ft 4 kts 257°
2026-05-07 11:25 40.69274 -74.17278 26 ft 4 kts 173°
2026-05-07 11:25 40.69297 -74.17287 26 ft 4 kts 122°
2026-05-07 11:25 40.69301 -74.17295 27 ft 0 kts 122°
2026-05-07 11:27 40.69272 -74.17232 25 ft 18 kts 120°
2026-05-07 11:27 40.69234 -74.17176 26 ft 8 kts 163°
2026-05-07 11:27 40.69121 -74.17220 23 ft 29 kts 204°
2026-05-07 11:27 40.68944 -74.17334 27 ft 27 kts 206°
2026-05-07 11:28 40.68777 -74.17441 26 ft 27 kts 206°
2026-05-07 11:28 40.68610 -74.17548 28 ft 27 kts 206°
2026-05-07 11:28 40.68440 -74.17656 27 ft 27 kts 206°
2026-05-07 11:28 40.68275 -74.17760 25 ft 27 kts 205°
2026-05-07 11:29 40.68108 -74.17866 26 ft 27 kts 206°
2026-05-07 11:29 40.67940 -74.17973 26 ft 27 kts 206°
2026-05-07 11:29 40.67805 -74.18058 26 ft 19 kts 205°
2026-05-07 11:29 40.67741 -74.18058 26 ft 9 kts 148°
2026-05-07 11:30 40.67704 -74.17984 28 ft 11 kts 121°
2026-05-07 11:30 40.67673 -74.17893 27 ft 11 kts 97°
2026-05-07 11:30 40.67719 -74.17822 26 ft 8 kts 26°
2026-05-07 11:30 40.67766 -74.17792 24 ft 31 kts 26°
2026-05-07 11:31 40.68208 -74.17517 28 ft 105 kts 26°
2026-05-07 11:31 40.69053 -74.16981 29 ft 164 kts 28°
2026-05-07 11:31 40.70220 -74.16235 134 ft 194 kts 22°
2026-05-07 11:31 40.71405 -74.15431 700 ft 197 kts 29°
2026-05-07 11:32 40.73690 -74.13290 1538 ft 215 kts 20°
2026-05-07 11:32 40.75180 -74.12986 1876 ft 222 kts 346°
2026-05-07 11:32 40.76599 -74.13842 2044 ft 236 kts 313°
2026-05-07 11:33 40.77470 -74.15693 2576 ft 237 kts 283°
2026-05-07 11:33 40.77768 -74.17815 3126 ft 241 kts 278°
2026-05-07 11:33 40.78025 -74.20034 3863 ft 243 kts 278°
2026-05-07 11:33 40.78287 -74.22224 4671 ft 244 kts 277°
2026-05-07 11:34 40.78691 -74.24410 5343 ft 246 kts 294°
2026-05-07 11:34 40.79872 -74.26148 5917 ft 257 kts 318°
2026-05-07 11:34 40.81310 -74.27583 6422 ft 262 kts 314°
2026-05-07 11:34 40.82672 -74.29133 7074 ft 262 kts 311°
2026-05-07 11:35 40.84039 -74.30780 7772 ft 265 kts 310°
2026-05-07 11:35 40.85404 -74.32476 8441 ft 268 kts 309°
2026-05-07 11:35 40.86739 -74.34163 9100 ft 270 kts 308°
2026-05-07 11:35 40.88100 -74.35908 9730 ft 274 kts 307°
2026-05-07 11:36 40.89017 -74.37092 10172 ft 275 kts 307°
2026-05-07 11:36 40.90888 -74.39536 10585 ft 298 kts 307°
2026-05-07 11:36 40.92413 -74.41547 10761 ft 321 kts 307°
2026-05-07 11:36 40.93496 -74.42975 10896 ft 336 kts 307°
2026-05-07 11:37 40.95213 -74.45236 11239 ft 353 kts 308°
2026-05-07 11:37 40.96979 -74.47554 11881 ft 362 kts 308°
2026-05-07 11:37 40.98811 -74.49953 12760 ft 366 kts 307°
2026-05-07 11:37 41.00591 -74.52288 13618 ft 370 kts 307°
2026-05-07 11:38 41.02435 -74.54717 14393 ft 374 kts 307°
2026-05-07 11:38 41.04285 -74.57159 15246 ft 375 kts 307°
2026-05-07 11:38 41.06128 -74.59595 16114 ft 377 kts 307°
2026-05-07 11:38 41.07995 -74.62068 16915 ft 380 kts 307°
2026-05-07 11:39 41.09906 -74.64600 17709 ft 384 kts 307°
2026-05-07 11:39 41.11769 -74.67080 18437 ft 387 kts 306°
2026-05-07 11:39 41.13517 -74.69780 19166 ft 382 kts 300°
2026-05-07 11:39 41.15018 -74.72644 19944 ft 376 kts 294°
2026-05-07 11:40 41.16316 -74.75672 20742 ft 374 kts 292°
2026-05-07 11:40 41.17595 -74.78647 21502 ft 375 kts 292°
2026-05-07 11:40 41.18902 -74.81659 22257 ft 376 kts 292°
2026-05-07 11:40 41.20239 -74.84729 23020 ft 376 kts 291°
2026-05-07 11:41 41.21538 -74.87716 23693 ft 377 kts 291°
2026-05-07 11:41 41.22846 -74.90730 24200 ft 379 kts 291°
2026-05-07 11:41 41.24187 -74.93825 24698 ft 382 kts 291°
2026-05-07 11:41 41.25494 -74.96841 25220 ft 383 kts 290°
2026-05-07 11:42 41.26833 -74.99930 25757 ft 384 kts 290°
2026-05-07 11:42 41.28169 -75.03016 26251 ft 386 kts 290°
2026-05-07 11:42 41.29526 -75.06156 26768 ft 388 kts 290°
2026-05-07 11:42 41.30873 -75.09276 27261 ft 390 kts 290°
2026-05-07 11:43 41.32223 -75.12410 27717 ft 392 kts 290°
2026-05-07 11:43 41.33564 -75.15526 28153 ft 394 kts 289°
2026-05-07 11:43 41.34947 -75.18740 28606 ft 395 kts 289°
2026-05-07 11:43 41.36317 -75.21924 29012 ft 397 kts 289°
2026-05-07 11:44 41.37686 -75.25113 29412 ft 399 kts 289°
2026-05-07 11:44 41.39070 -75.28338 29780 ft 401 kts 289°
2026-05-07 11:44 41.40454 -75.31570 30121 ft 402 kts 289°
2026-05-07 11:44 41.41841 -75.34807 30426 ft 402 kts 289°
2026-05-07 11:45 41.43218 -75.38026 30697 ft 403 kts 289°
2026-05-07 11:45 41.44624 -75.41318 30957 ft 404 kts 289°
2026-05-07 11:45 41.45998 -75.44534 31228 ft 404 kts 289°
2026-05-07 11:45 41.47344 -75.47836 31519 ft 399 kts 286°
2026-05-07 11:46 41.48468 -75.51181 31853 ft 391 kts 282°
2026-05-07 11:46 41.49407 -75.54592 32246 ft 388 kts 281°
2026-05-07 11:46 41.50363 -75.57951 32622 ft 385 kts 282°
2026-05-07 11:46 41.51322 -75.61264 32923 ft 384 kts 282°
2026-05-07 11:47 41.52281 -75.64575 33204 ft 383 kts 282°
2026-05-07 11:47 41.53256 -75.67950 33476 ft 382 kts 282°
2026-05-07 11:47 41.54196 -75.71219 33826 ft 379 kts 282°
2026-05-07 11:48 41.56094 -75.77864 33952 ft 383 kts 282°
2026-05-07 11:48 41.57984 -75.84477 33959 ft 376 kts 282°
2026-05-07 11:49 41.59828 -75.90979 33966 ft 373 kts 281°
2026-05-07 11:49 41.61640 -75.97433 33976 ft 375 kts 281°
2026-05-07 11:50 41.63478 -76.03984 33974 ft 377 kts 281°
2026-05-07 11:50 41.65327 -76.10575 33980 ft 376 kts 281°
2026-05-07 11:51 41.67153 -76.17104 33990 ft 373 kts 281°
2026-05-07 11:51 41.68972 -76.23622 33975 ft 374 kts 281°
2026-05-07 11:52 41.70805 -76.30122 33978 ft 374 kts 281°
2026-05-07 11:52 41.72637 -76.36622 33973 ft 373 kts 281°
2026-05-07 11:53 41.74465 -76.43134 33984 ft 372 kts 281°
2026-05-07 11:53 41.76284 -76.49629 33976 ft 372 kts 281°
2026-05-07 11:54 41.78097 -76.56138 33975 ft 371 kts 281°
2026-05-07 11:54 41.79891 -76.62636 33996 ft 371 kts 280°
2026-05-07 11:55 41.81682 -76.69140 33975 ft 372 kts 280°
2026-05-07 11:55 41.83463 -76.75618 33977 ft 372 kts 280°
2026-05-07 11:56 41.85260 -76.82177 33984 ft 372 kts 280°
2026-05-07 11:56 41.87045 -76.88694 33970 ft 372 kts 280°
2026-05-07 11:57 41.88824 -76.95222 33976 ft 372 kts 280°
2026-05-07 11:57 41.90601 -77.01789 33984 ft 372 kts 280°
2026-05-07 11:58 41.92358 -77.08314 33991 ft 373 kts 280°
2026-05-07 11:58 41.94113 -77.14846 33987 ft 374 kts 280°
2026-05-07 11:59 41.95875 -77.21412 33990 ft 374 kts 280°
2026-05-07 11:59 41.97642 -77.28017 33995 ft 375 kts 280°
2026-05-07 12:00 41.99416 -77.34665 33981 ft 376 kts 280°
2026-05-07 12:00 42.01182 -77.41306 33980 ft 377 kts 280°
2026-05-07 12:01 42.02979 -77.47923 33993 ft 378 kts 281°
2026-05-07 12:01 42.04795 -77.54572 33989 ft 379 kts 281°
2026-05-07 12:02 42.06307 -77.60133 33996 ft 379 kts 281°
2026-05-07 12:02 42.08111 -77.66792 33987 ft 380 kts 281°
2026-05-07 12:03 42.09926 -77.73514 33983 ft 381 kts 281°
2026-05-07 12:03 42.11745 -77.80261 33975 ft 382 kts 281°
2026-05-07 12:04 42.13563 -77.87029 33961 ft 384 kts 281°
2026-05-07 12:04 42.15370 -77.93783 33973 ft 385 kts 281°
2026-05-07 12:05 42.17184 -78.00570 33962 ft 386 kts 281°
2026-05-07 12:05 42.19005 -78.07408 33962 ft 387 kts 281°
2026-05-07 12:06 42.20817 -78.14233 33970 ft 389 kts 281°
2026-05-07 12:06 42.22644 -78.21129 33985 ft 390 kts 281°
2026-05-07 12:07 42.24478 -78.28074 33992 ft 392 kts 281°
2026-05-07 12:07 42.26235 -78.35061 33976 ft 391 kts 280°
2026-05-07 12:08 42.27958 -78.42046 34007 ft 392 kts 281°
2026-05-07 12:08 42.29675 -78.49005 33979 ft 391 kts 281°
2026-05-07 12:09 42.31417 -78.56056 33989 ft 391 kts 281°
2026-05-07 12:09 42.33126 -78.62995 33984 ft 393 kts 281°
2026-05-07 12:10 42.34856 -78.70037 33989 ft 394 kts 281°
2026-05-07 12:10 42.36580 -78.77067 33990 ft 395 kts 281°
2026-05-07 12:11 42.38313 -78.84167 33979 ft 395 kts 281°
2026-05-07 12:11 42.40034 -78.91232 33989 ft 395 kts 281°
2026-05-07 12:12 42.41753 -78.98260 33998 ft 396 kts 281°
2026-05-07 12:12 42.43501 -79.05401 34000 ft 397 kts 281°
2026-05-07 12:13 42.45237 -79.12518 33990 ft 397 kts 281°
2026-05-07 12:13 42.46961 -79.19614 33995 ft 398 kts 281°
2026-05-07 12:14 42.48693 -79.26765 34005 ft 399 kts 281°
2026-05-07 12:14 42.50423 -79.33930 34004 ft 400 kts 281°
2026-05-07 12:15 42.52156 -79.41129 33994 ft 399 kts 281°
2026-05-07 12:15 42.53867 -79.48260 33999 ft 400 kts 281°
2026-05-07 12:16 42.55584 -79.55437 33994 ft 400 kts 281°
2026-05-07 12:16 42.57302 -79.62641 33983 ft 401 kts 281°
2026-05-07 12:17 42.59048 -79.69865 33983 ft 403 kts 281°
2026-05-07 12:17 42.60627 -79.77123 33974 ft 399 kts 276°
2026-05-07 12:18 42.61478 -79.84580 33982 ft 396 kts 270°
2026-05-07 12:18 42.61791 -79.92039 33982 ft 398 kts 269°
2026-05-07 12:19 42.62112 -79.99572 33979 ft 399 kts 270°
2026-05-07 12:19 42.62433 -80.07057 33983 ft 398 kts 270°
2026-05-07 12:20 42.62753 -80.14615 33985 ft 399 kts 270°
2026-05-07 12:20 42.63066 -80.22138 33983 ft 399 kts 270°
2026-05-07 12:21 42.63374 -80.29651 33980 ft 400 kts 270°
2026-05-07 12:21 42.63679 -80.37191 33981 ft 399 kts 269°
2026-05-07 12:22 42.63979 -80.44747 33986 ft 400 kts 269°
2026-05-07 12:22 42.64273 -80.52313 33977 ft 401 kts 269°
2026-05-07 12:23 42.64544 -80.59943 33982 ft 402 kts 269°
2026-05-07 12:23 42.64805 -80.67514 33982 ft 402 kts 269°
2026-05-07 12:24 42.65065 -80.75119 33983 ft 402 kts 269°
2026-05-07 12:24 42.65319 -80.82722 33978 ft 403 kts 269°
2026-05-07 12:25 42.65570 -80.90305 33975 ft 403 kts 269°
2026-05-07 12:25 42.65818 -80.97981 33979 ft 404 kts 269°
2026-05-07 12:26 42.66060 -81.05598 33978 ft 405 kts 269°
2026-05-07 12:26 42.66257 -81.12001 33973 ft 406 kts 269°
2026-05-07 12:27 42.66528 -81.20906 33976 ft 406 kts 269°
2026-05-07 12:27 42.66889 -81.28572 33975 ft 408 kts 274°
2026-05-07 12:28 42.67678 -81.34954 33984 ft 409 kts 275°
2026-05-07 12:28 42.68561 -81.42578 33975 ft 409 kts 275°
2026-05-07 12:29 42.69434 -81.50286 33982 ft 409 kts 275°
2026-05-07 12:29 42.70302 -81.57924 33977 ft 409 kts 275°
2026-05-07 12:30 42.71172 -81.65584 33976 ft 410 kts 275°
2026-05-07 12:30 42.72037 -81.73241 33985 ft 410 kts 275°
2026-05-07 12:31 42.72898 -81.80916 33983 ft 411 kts 275°
2026-05-07 12:31 42.73759 -81.88631 33976 ft 411 kts 275°
2026-05-07 12:32 42.74613 -81.96336 33986 ft 411 kts 275°
2026-05-07 12:32 42.75458 -82.04012 33984 ft 412 kts 275°
2026-05-07 12:33 42.76732 -82.15675 33978 ft 414 kts 275°
2026-05-07 12:33 42.77570 -82.23406 33979 ft 414 kts 275°
2026-05-07 12:34 42.78405 -82.31159 33984 ft 414 kts 275°
2026-05-07 12:34 42.79237 -82.38936 33985 ft 415 kts 275°
2026-05-07 12:35 42.80067 -82.46734 33984 ft 416 kts 275°
2026-05-07 12:35 42.80844 -82.54557 33983 ft 416 kts 274°
2026-05-07 12:36 42.81837 -82.62346 33979 ft 417 kts 277°
2026-05-07 12:36 42.82910 -82.70101 33983 ft 416 kts 277°
2026-05-07 12:37 42.83974 -82.77874 33979 ft 417 kts 277°
2026-05-07 12:37 42.85027 -82.85660 33967 ft 418 kts 277°
2026-05-07 12:38 42.86074 -82.93468 33966 ft 418 kts 277°
2026-05-07 12:38 42.87118 -83.01290 33972 ft 418 kts 277°
2026-05-07 12:39 42.88153 -83.09091 33977 ft 418 kts 277°
2026-05-07 12:39 42.89183 -83.16898 33983 ft 418 kts 277°
2026-05-07 12:40 42.90212 -83.24726 33987 ft 419 kts 277°
2026-05-07 12:40 42.91154 -83.32559 33992 ft 418 kts 274°
2026-05-07 12:41 42.91852 -83.40474 33993 ft 418 kts 274°
2026-05-07 12:41 42.92542 -83.48317 33994 ft 419 kts 274°
2026-05-07 12:42 42.93241 -83.56249 33990 ft 419 kts 274°
2026-05-07 12:42 42.93939 -83.64216 33989 ft 419 kts 274°
2026-05-07 12:43 42.94623 -83.72073 33989 ft 420 kts 274°
2026-05-07 12:43 42.95311 -83.80044 33991 ft 419 kts 274°
2026-05-07 12:44 42.95985 -83.87924 33997 ft 419 kts 274°
2026-05-07 12:44 42.96655 -83.95825 34000 ft 420 kts 274°
2026-05-07 12:45 42.97322 -84.03747 34002 ft 420 kts 274°
2026-05-07 12:45 42.97985 -84.11693 34000 ft 420 kts 274°
2026-05-07 12:46 42.98641 -84.19621 34005 ft 420 kts 274°
2026-05-07 12:46 42.99295 -84.27596 33986 ft 421 kts 274°
2026-05-07 12:47 42.99941 -84.35541 33993 ft 420 kts 274°
2026-05-07 12:47 43.00578 -84.43443 33990 ft 420 kts 274°
2026-05-07 12:48 43.01213 -84.51380 33998 ft 420 kts 274°
2026-05-07 12:48 43.01842 -84.59334 33996 ft 420 kts 274°
2026-05-07 12:49 43.02259 -84.67302 34004 ft 420 kts 271°
2026-05-07 12:49 43.02542 -84.75294 34005 ft 420 kts 271°
2026-05-07 12:50 43.02835 -84.83276 34006 ft 420 kts 271°
2026-05-07 12:50 43.03145 -84.91234 33998 ft 419 kts 271°
2026-05-07 12:51 43.03460 -84.99181 34002 ft 420 kts 271°
2026-05-07 12:51 43.03722 -85.05865 34000 ft 420 kts 271°
2026-05-07 12:52 43.04029 -85.13836 34000 ft 420 kts 271°
2026-05-07 12:52 43.04331 -85.21817 34006 ft 420 kts 271°
2026-05-07 12:53 43.04629 -85.29864 34009 ft 421 kts 271°
2026-05-07 12:53 43.04919 -85.37825 34009 ft 420 kts 271°
2026-05-07 12:54 43.05204 -85.45825 34007 ft 420 kts 271°
2026-05-07 12:54 43.05483 -85.53792 34009 ft 419 kts 271°
2026-05-07 12:55 43.05755 -85.61745 34011 ft 421 kts 271°
2026-05-07 12:55 43.06025 -85.69782 34013 ft 422 kts 271°
2026-05-07 12:56 43.06288 -85.77783 34009 ft 422 kts 271°
2026-05-07 12:56 43.06547 -85.85846 34017 ft 422 kts 271°
2026-05-07 12:57 43.06800 -85.93892 34018 ft 423 kts 271°
2026-05-07 12:57 43.07047 -86.01921 34016 ft 422 kts 271°
2026-05-07 12:58 43.07290 -86.09954 34018 ft 422 kts 271°
2026-05-07 12:58 43.07525 -86.17966 34017 ft 422 kts 271°
2026-05-07 12:59 43.07753 -86.25971 34017 ft 422 kts 271°
2026-05-07 12:59 43.07979 -86.34048 34020 ft 423 kts 271°
2026-05-07 13:00 43.08200 -86.42114 34032 ft 423 kts 270°
2026-05-07 13:00 43.08412 -86.50123 34025 ft 423 kts 270°
2026-05-07 13:01 43.08622 -86.58219 34034 ft 423 kts 270°
2026-05-07 13:01 43.08824 -86.66260 34032 ft 424 kts 270°
2026-05-07 13:02 43.09022 -86.74359 34037 ft 425 kts 270°
2026-05-07 13:02 43.09212 -86.82385 34039 ft 425 kts 270°
2026-05-07 13:03 43.09400 -86.90536 34035 ft 426 kts 270°
2026-05-07 13:03 43.09581 -86.98629 34040 ft 425 kts 270°
2026-05-07 13:04 43.09757 -87.06750 34037 ft 425 kts 270°
2026-05-07 13:04 43.09925 -87.14799 34039 ft 426 kts 270°
2026-05-07 13:05 43.10088 -87.22905 34038 ft 426 kts 270°
2026-05-07 13:05 43.10247 -87.31021 34038 ft 426 kts 270°
2026-05-07 13:06 43.10399 -87.39129 34037 ft 426 kts 270°
2026-05-07 13:06 43.10546 -87.47248 34035 ft 426 kts 270°
2026-05-07 13:07 43.10687 -87.55375 34040 ft 427 kts 270°
2026-05-07 13:07 43.10824 -87.63571 34041 ft 427 kts 270°
2026-05-07 13:08 43.10954 -87.71715 34042 ft 428 kts 270°
2026-05-07 13:08 43.11079 -87.79883 34058 ft 428 kts 270°
2026-05-07 13:09 43.11198 -87.88109 34062 ft 429 kts 270°
2026-05-07 13:09 43.11310 -87.96204 34065 ft 429 kts 270°
2026-05-07 13:10 43.11418 -88.04446 34066 ft 430 kts 270°
2026-05-07 13:10 43.11520 -88.12635 34064 ft 430 kts 270°
2026-05-07 13:11 43.11618 -88.20842 34053 ft 430 kts 270°
2026-05-07 13:11 43.11767 -88.29028 34064 ft 430 kts 273°
2026-05-07 13:12 43.12576 -88.37180 34048 ft 432 kts 276°
2026-05-07 13:12 43.13397 -88.45312 34050 ft 432 kts 276°
2026-05-07 13:13 43.14195 -88.53480 34052 ft 432 kts 276°
2026-05-07 13:13 43.14990 -88.61647 34044 ft 433 kts 276°
2026-05-07 13:14 43.15784 -88.69843 34045 ft 434 kts 276°
2026-05-07 13:14 43.16440 -88.76655 34046 ft 434 kts 276°
2026-05-07 13:15 43.17234 -88.84941 34044 ft 433 kts 276°
2026-05-07 13:15 43.18011 -88.93128 34046 ft 433 kts 276°
2026-05-07 13:16 43.18783 -89.01324 34042 ft 434 kts 276°
2026-05-07 13:16 43.19554 -89.09560 34039 ft 435 kts 276°
2026-05-07 13:17 43.20316 -89.17776 34037 ft 434 kts 276°
2026-05-07 13:17 43.21072 -89.25985 34041 ft 435 kts 276°
2026-05-07 13:18 43.21825 -89.34236 34040 ft 434 kts 276°
2026-05-07 13:18 43.22569 -89.42456 34037 ft 435 kts 276°
2026-05-07 13:19 43.23316 -89.50770 34038 ft 435 kts 276°
2026-05-07 13:19 43.24045 -89.58949 34037 ft 435 kts 276°
2026-05-07 13:20 43.24775 -89.67222 34035 ft 435 kts 276°
2026-05-07 13:20 43.25498 -89.75468 34027 ft 435 kts 276°
2026-05-07 13:21 43.26212 -89.83698 34033 ft 436 kts 276°
2026-05-07 13:21 43.26928 -89.92014 34030 ft 436 kts 276°
2026-05-07 13:22 43.27629 -90.00217 34030 ft 436 kts 276°
2026-05-07 13:22 43.28332 -90.08528 34024 ft 436 kts 276°
2026-05-07 13:23 43.29028 -90.16820 34111 ft 437 kts 276°
2026-05-07 13:23 43.29372 -90.20954 34329 ft 437 kts 276°
2026-05-07 13:23 43.29720 -90.25142 34615 ft 436 kts 276°
2026-05-07 13:24 43.30067 -90.29331 34852 ft 436 kts 276°
2026-05-07 13:24 43.30406 -90.33465 35065 ft 437 kts 276°
2026-05-07 13:24 43.30742 -90.37577 35272 ft 437 kts 276°
2026-05-07 13:24 43.31081 -90.41727 35481 ft 437 kts 276°
2026-05-07 13:25 43.31418 -90.45889 35686 ft 438 kts 276°
2026-05-07 13:25 43.31752 -90.50030 35879 ft 438 kts 276°
2026-05-07 13:25 43.32424 -90.58407 35990 ft 441 kts 276°
2026-05-07 13:26 43.33089 -90.66779 36016 ft 441 kts 276°
2026-05-07 13:26 43.33747 -90.75150 36041 ft 439 kts 276°
2026-05-07 13:27 43.34396 -90.83470 36025 ft 438 kts 276°
2026-05-07 13:27 43.35038 -90.91781 36023 ft 439 kts 276°
2026-05-07 13:28 43.35678 -91.00142 36021 ft 439 kts 276°
2026-05-07 13:28 43.36312 -91.08530 36015 ft 439 kts 276°
2026-05-07 13:29 43.36939 -91.16877 36020 ft 439 kts 276°
2026-05-07 13:29 43.37557 -91.25221 36011 ft 438 kts 276°
2026-05-07 13:30 43.38170 -91.33558 35993 ft 439 kts 276°
2026-05-07 13:30 43.38779 -91.41932 35999 ft 439 kts 276°
2026-05-07 13:31 43.39380 -91.50277 35973 ft 439 kts 276°
2026-05-07 13:31 43.39976 -91.58643 35973 ft 438 kts 276°
2026-05-07 13:32 43.40565 -91.66997 35976 ft 439 kts 276°
2026-05-07 13:32 43.41148 -91.75346 35973 ft 439 kts 276°
2026-05-07 13:33 43.41727 -91.83736 35973 ft 438 kts 276°
2026-05-07 13:33 43.42295 -91.92056 35976 ft 438 kts 276°
2026-05-07 13:34 43.43142 -92.04620 35996 ft 438 kts 276°
2026-05-07 13:35 43.43696 -92.12960 35990 ft 438 kts 276°
2026-05-07 13:35 43.44248 -92.21359 35991 ft 438 kts 276°
2026-05-07 13:36 43.44793 -92.29750 35992 ft 438 kts 276°
2026-05-07 13:36 43.45326 -92.38051 35987 ft 438 kts 276°
2026-05-07 13:37 43.45860 -92.46476 35985 ft 438 kts 276°
2026-05-07 13:37 43.46380 -92.54768 35979 ft 437 kts 276°
2026-05-07 13:38 43.46897 -92.63105 35974 ft 437 kts 276°
2026-05-07 13:38 43.47326 -92.70095 35975 ft 437 kts 276°
2026-05-07 13:39 43.47831 -92.78423 35976 ft 437 kts 276°
2026-05-07 13:39 43.48332 -92.86788 35977 ft 436 kts 276°
2026-05-07 13:40 43.48826 -92.95123 35975 ft 436 kts 276°
2026-05-07 13:40 43.49311 -93.03434 35972 ft 436 kts 276°
2026-05-07 13:41 43.49792 -93.11773 35971 ft 435 kts 276°
2026-05-07 13:41 43.50267 -93.20101 35967 ft 436 kts 276°
2026-05-07 13:42 43.50736 -93.28435 35968 ft 436 kts 276°
2026-05-07 13:42 43.51196 -93.36741 35964 ft 435 kts 276°
2026-05-07 13:43 43.51653 -93.45073 35973 ft 435 kts 276°
2026-05-07 13:43 43.52103 -93.53399 35962 ft 435 kts 276°
2026-05-07 13:44 43.52547 -93.61739 35964 ft 435 kts 276°
2026-05-07 13:44 43.52983 -93.70038 35961 ft 435 kts 276°
2026-05-07 13:45 43.53415 -93.78365 35968 ft 434 kts 276°
2026-05-07 13:45 43.53839 -93.86662 35976 ft 434 kts 276°
2026-05-07 13:46 43.54258 -93.94979 35971 ft 434 kts 277°
2026-05-07 13:46 43.54670 -94.03288 35989 ft 433 kts 277°
2026-05-07 13:47 43.55074 -94.11553 35986 ft 433 kts 277°
2026-05-07 13:47 43.55476 -94.19877 35981 ft 433 kts 277°
2026-05-07 13:48 43.55867 -94.28116 35983 ft 433 kts 277°
2026-05-07 13:48 43.56254 -94.36399 35980 ft 433 kts 277°
2026-05-07 13:49 43.56636 -94.44719 35981 ft 432 kts 277°
2026-05-07 13:49 43.57007 -94.52918 35981 ft 432 kts 277°
2026-05-07 13:50 43.57379 -94.61257 35984 ft 431 kts 277°
2026-05-07 13:50 43.57740 -94.69508 35974 ft 431 kts 277°
2026-05-07 13:51 43.58097 -94.77768 35969 ft 431 kts 277°
2026-05-07 13:51 43.58445 -94.85998 35965 ft 430 kts 277°
2026-05-07 13:52 43.58788 -94.94249 35963 ft 430 kts 277°
2026-05-07 13:52 43.59128 -95.02536 35959 ft 429 kts 277°
2026-05-07 13:53 43.59457 -95.10734 35963 ft 429 kts 277°
2026-05-07 13:53 43.59782 -95.18951 35970 ft 429 kts 277°
2026-05-07 13:54 43.60101 -95.27187 35971 ft 429 kts 277°
2026-05-07 13:54 43.60419 -95.35561 35965 ft 428 kts 277°
2026-05-07 13:55 43.60723 -95.43707 35964 ft 428 kts 277°
2026-05-07 13:55 43.61025 -95.51947 35963 ft 428 kts 277°
2026-05-07 13:56 43.61319 -95.60136 35969 ft 428 kts 277°
2026-05-07 13:56 43.61606 -95.68332 35963 ft 428 kts 276°
2026-05-07 13:57 43.61890 -95.76565 35962 ft 427 kts 276°
2026-05-07 13:57 43.62165 -95.84722 35959 ft 427 kts 276°
2026-05-07 13:58 43.62436 -95.92938 35959 ft 427 kts 276°
2026-05-07 13:58 43.62700 -96.01127 35958 ft 427 kts 276°
2026-05-07 13:59 43.62958 -96.09311 35961 ft 427 kts 276°
2026-05-07 13:59 43.63211 -96.17491 35959 ft 426 kts 276°
2026-05-07 14:00 43.63459 -96.25704 35953 ft 427 kts 276°
2026-05-07 14:00 43.63700 -96.33895 35953 ft 426 kts 276°
2026-05-07 14:01 43.63895 -96.40690 35956 ft 426 kts 276°
2026-05-07 14:01 43.64126 -96.48928 35957 ft 426 kts 276°
2026-05-07 14:02 43.64352 -96.57139 35953 ft 427 kts 276°
2026-05-07 14:02 43.64571 -96.65357 35949 ft 427 kts 276°
2026-05-07 14:03 43.64785 -96.73556 35951 ft 426 kts 276°
2026-05-07 14:03 43.64867 -96.81751 35945 ft 428 kts 273°
2026-05-07 14:04 43.64710 -96.89952 35948 ft 428 kts 273°
2026-05-07 14:04 43.64544 -96.98186 35944 ft 428 kts 273°
2026-05-07 14:05 43.64381 -97.06414 35951 ft 428 kts 273°
2026-05-07 14:05 43.64217 -97.14630 35950 ft 428 kts 273°
2026-05-07 14:06 43.64047 -97.22842 35958 ft 428 kts 273°
2026-05-07 14:06 43.63873 -97.31105 35956 ft 428 kts 273°
2026-05-07 14:07 43.63692 -97.39318 35946 ft 428 kts 273°
2026-05-07 14:07 43.63507 -97.47502 35946 ft 428 kts 273°
2026-05-07 14:08 43.63314 -97.55702 35947 ft 428 kts 273°
2026-05-07 14:08 43.63115 -97.63938 35959 ft 428 kts 272°
2026-05-07 14:09 43.62910 -97.72204 35956 ft 428 kts 272°
2026-05-07 14:09 43.62700 -97.80399 35954 ft 429 kts 272°
2026-05-07 14:10 43.62483 -97.88644 35960 ft 428 kts 272°
2026-05-07 14:10 43.62261 -97.96871 35951 ft 428 kts 272°
2026-05-07 14:11 43.62032 -98.05110 35950 ft 428 kts 272°
2026-05-07 14:11 43.61798 -98.13330 35956 ft 429 kts 272°
2026-05-07 14:12 43.61559 -98.21537 35955 ft 430 kts 272°
2026-05-07 14:12 43.61312 -98.29810 35955 ft 430 kts 272°
2026-05-07 14:13 43.61059 -98.38060 35953 ft 430 kts 272°
2026-05-07 14:13 43.60801 -98.46300 35951 ft 430 kts 272°
2026-05-07 14:14 43.60537 -98.54532 35946 ft 431 kts 272°
2026-05-07 14:14 43.60266 -98.62807 35949 ft 431 kts 272°
2026-05-07 14:15 43.59987 -98.71119 35950 ft 431 kts 272°
2026-05-07 14:15 43.59705 -98.79379 35952 ft 431 kts 271°
2026-05-07 14:16 43.59415 -98.87664 35947 ft 432 kts 271°
2026-05-07 14:16 43.59121 -98.95900 35946 ft 432 kts 271°
2026-05-07 14:17 43.58818 -99.04231 35944 ft 433 kts 271°
2026-05-07 14:17 43.58509 -99.12526 35940 ft 433 kts 271°
2026-05-07 14:18 43.58196 -99.20813 35936 ft 433 kts 271°
2026-05-07 14:18 43.57876 -99.29094 35942 ft 434 kts 271°
2026-05-07 14:19 43.57549 -99.37418 35934 ft 434 kts 271°
2026-05-07 14:19 43.57215 -99.45756 35936 ft 435 kts 271°
2026-05-07 14:20 43.56876 -99.54077 35938 ft 436 kts 271°
2026-05-07 14:20 43.56527 -99.62457 35927 ft 436 kts 271°
2026-05-07 14:21 43.56174 -99.70833 35921 ft 436 kts 271°
2026-05-07 14:21 43.55817 -99.79146 35927 ft 437 kts 270°
2026-05-07 14:22 43.55451 -99.87523 35926 ft 438 kts 270°
2026-05-07 14:22 43.55075 -99.95976 35933 ft 439 kts 270°
2026-05-07 14:23 43.54695 -100.04382 35926 ft 440 kts 270°
2026-05-07 14:23 43.54308 -100.12809 35930 ft 440 kts 270°
2026-05-07 14:24 43.53914 -100.21241 35922 ft 441 kts 270°
2026-05-07 14:24 43.53514 -100.29677 35923 ft 441 kts 270°
2026-05-07 14:25 43.53107 -100.38152 35920 ft 442 kts 270°
2026-05-07 14:25 43.52694 -100.46578 35921 ft 443 kts 269°
2026-05-07 14:26 43.52270 -100.55125 35922 ft 444 kts 269°
2026-05-07 14:26 43.51845 -100.63552 35930 ft 444 kts 269°
2026-05-07 14:27 43.51411 -100.72055 35910 ft 446 kts 269°
2026-05-07 14:27 43.51039 -100.79219 35921 ft 446 kts 269°
2026-05-07 14:28 43.50591 -100.87747 35912 ft 446 kts 269°
2026-05-07 14:28 43.50140 -100.96219 35912 ft 447 kts 269°
2026-05-07 14:29 43.49678 -101.04768 35918 ft 448 kts 269°
2026-05-07 14:29 43.49211 -101.13306 35914 ft 448 kts 269°
2026-05-07 14:30 43.48733 -101.21919 35917 ft 448 kts 268°
2026-05-07 14:30 43.48254 -101.30422 35917 ft 449 kts 268°
2026-05-07 14:31 43.47763 -101.39020 35905 ft 449 kts 268°
2026-05-07 14:31 43.47269 -101.47579 35907 ft 449 kts 268°
2026-05-07 14:32 43.46767 -101.56143 35911 ft 449 kts 268°
2026-05-07 14:32 43.46256 -101.64769 35901 ft 450 kts 268°
2026-05-07 14:33 43.45740 -101.73350 35906 ft 450 kts 268°
2026-05-07 14:33 43.45218 -101.81941 35905 ft 450 kts 268°
2026-05-07 14:34 43.44685 -101.90590 35903 ft 450 kts 268°
2026-05-07 14:34 43.44155 -101.99096 35911 ft 450 kts 268°
2026-05-07 14:35 43.43613 -102.07688 35913 ft 450 kts 268°
2026-05-07 14:35 43.43062 -102.16309 35910 ft 450 kts 268°
2026-05-07 14:36 43.42508 -102.24883 35911 ft 450 kts 268°
2026-05-07 14:36 43.41947 -102.33462 35917 ft 450 kts 268°
2026-05-07 14:37 43.41380 -102.42037 35915 ft 449 kts 268°
2026-05-07 14:37 43.40519 -102.54871 35919 ft 449 kts 268°
2026-05-07 14:38 43.39936 -102.63429 35923 ft 449 kts 268°
2026-05-07 14:38 43.39347 -102.71987 35923 ft 448 kts 268°
2026-05-07 14:39 43.38754 -102.80518 35924 ft 448 kts 268°
2026-05-07 14:39 43.38154 -102.89047 35931 ft 447 kts 268°
2026-05-07 14:40 43.37550 -102.97553 35931 ft 447 kts 268°
2026-05-07 14:40 43.36941 -103.06037 35925 ft 447 kts 268°
2026-05-07 14:41 43.36321 -103.14569 35924 ft 446 kts 268°
2026-05-07 14:41 43.35700 -103.23044 35925 ft 446 kts 268°
2026-05-07 14:42 43.35069 -103.31562 35911 ft 446 kts 268°
2026-05-07 14:42 43.34435 -103.40024 35914 ft 445 kts 268°
2026-05-07 14:43 43.33794 -103.48499 35903 ft 445 kts 268°
2026-05-07 14:43 43.33152 -103.56913 35902 ft 445 kts 268°
2026-05-07 14:44 43.32500 -103.65385 35902 ft 445 kts 267°
2026-05-07 14:44 43.31845 -103.73790 35897 ft 444 kts 267°
2026-05-07 14:45 43.31182 -103.82225 35910 ft 444 kts 267°
2026-05-07 14:45 43.30512 -103.90664 35915 ft 443 kts 267°
2026-05-07 14:46 43.29838 -103.99079 35913 ft 444 kts 267°
2026-05-07 14:46 43.29157 -104.07508 35927 ft 444 kts 267°
2026-05-07 14:47 43.28467 -104.15952 35920 ft 444 kts 267°
2026-05-07 14:47 43.27775 -104.24359 35915 ft 443 kts 267°
2026-05-07 14:48 43.27077 -104.32756 35903 ft 444 kts 267°
2026-05-07 14:48 43.26368 -104.41220 35892 ft 445 kts 266°
2026-05-07 14:49 43.25656 -104.49625 35886 ft 444 kts 266°
2026-05-07 14:49 43.24938 -104.58044 35882 ft 445 kts 266°
2026-05-07 14:50 43.24211 -104.66473 35872 ft 445 kts 266°
2026-05-07 14:50 43.23478 -104.74912 35873 ft 445 kts 266°
2026-05-07 14:51 43.22740 -104.83332 35869 ft 445 kts 266°
2026-05-07 14:51 43.21989 -104.91838 35871 ft 446 kts 266°
2026-05-07 14:52 43.21239 -105.00243 35871 ft 446 kts 266°
2026-05-07 14:52 43.20477 -105.08721 35878 ft 446 kts 266°
2026-05-07 14:53 43.19717 -105.17105 35874 ft 446 kts 266°
2026-05-07 14:53 43.18944 -105.25551 35881 ft 446 kts 266°
2026-05-07 14:54 43.18160 -105.34056 35891 ft 446 kts 266°
2026-05-07 14:54 43.17376 -105.42503 35891 ft 447 kts 266°
2026-05-07 14:55 43.16711 -105.49599 35905 ft 447 kts 266°
2026-05-07 14:55 43.15916 -105.58027 35898 ft 447 kts 266°
2026-05-07 14:56 43.15117 -105.66422 35911 ft 446 kts 266°
2026-05-07 14:56 43.14309 -105.74853 35920 ft 446 kts 266°
2026-05-07 14:57 43.13496 -105.83271 35925 ft 446 kts 266°
2026-05-07 14:57 43.12674 -105.91712 35931 ft 446 kts 266°
2026-05-07 14:58 43.11848 -106.00128 35932 ft 446 kts 266°
2026-05-07 14:58 43.11019 -106.08517 35938 ft 446 kts 266°
2026-05-07 14:59 43.10178 -106.16960 35958 ft 445 kts 266°
2026-05-07 14:59 43.09337 -106.25353 35993 ft 445 kts 266°
2026-05-07 15:00 43.08440 -106.33728 35989 ft 446 kts 265°
2026-05-07 15:00 43.07451 -106.42075 36013 ft 445 kts 265°
2026-05-07 15:01 43.06453 -106.50422 36023 ft 445 kts 265°
2026-05-07 15:01 43.05454 -106.58814 36014 ft 445 kts 266°
2026-05-07 15:02 43.04461 -106.67153 36001 ft 444 kts 266°
2026-05-07 15:02 43.03461 -106.75514 35978 ft 443 kts 266°
2026-05-07 15:03 43.02464 -106.83799 35954 ft 441 kts 266°
2026-05-07 15:03 43.01464 -106.92051 35932 ft 441 kts 266°
2026-05-07 15:04 43.00462 -107.00281 35941 ft 441 kts 266°
2026-05-07 15:04 42.99447 -107.08554 35947 ft 442 kts 266°
2026-05-07 15:05 42.98426 -107.16829 35939 ft 442 kts 266°
2026-05-07 15:05 42.97392 -107.25152 35951 ft 441 kts 266°
2026-05-07 15:06 42.96366 -107.33361 35945 ft 441 kts 266°
2026-05-07 15:06 42.95329 -107.41614 35954 ft 441 kts 266°
2026-05-07 15:07 42.94277 -107.49935 35955 ft 442 kts 267°
2026-05-07 15:07 42.93233 -107.58149 35948 ft 443 kts 267°
2026-05-07 15:08 42.92172 -107.66429 35940 ft 443 kts 267°
2026-05-07 15:08 42.91106 -107.74710 35938 ft 443 kts 267°
2026-05-07 15:09 42.90034 -107.82979 35934 ft 443 kts 267°
2026-05-07 15:09 42.88952 -107.91289 35935 ft 444 kts 267°
2026-05-07 15:10 42.87862 -107.99614 35941 ft 445 kts 267°
2026-05-07 15:10 42.86774 -108.07855 35943 ft 445 kts 267°
2026-05-07 15:11 42.85672 -108.16169 35959 ft 445 kts 267°
2026-05-07 15:11 42.84566 -108.24468 35966 ft 446 kts 267°
2026-05-07 15:12 42.83444 -108.32830 35969 ft 447 kts 267°
2026-05-07 15:12 42.82314 -108.41208 35980 ft 448 kts 267°
2026-05-07 15:13 42.81188 -108.49504 36010 ft 448 kts 267°
2026-05-07 15:13 42.80047 -108.57848 36034 ft 447 kts 267°
2026-05-07 15:14 42.78903 -108.66193 36046 ft 446 kts 267°
2026-05-07 15:14 42.77760 -108.74473 36044 ft 446 kts 267°
2026-05-07 15:15 42.76612 -108.82749 36035 ft 446 kts 267°
2026-05-07 15:15 42.75446 -108.91107 36024 ft 445 kts 266°
2026-05-07 15:16 42.74286 -108.99365 36015 ft 444 kts 266°
2026-05-07 15:16 42.73128 -109.07574 35999 ft 444 kts 266°
2026-05-07 15:17 42.71949 -109.15878 36020 ft 444 kts 266°
2026-05-07 15:17 42.70783 -109.24066 36027 ft 444 kts 266°
2026-05-07 15:18 42.69595 -109.32344 36024 ft 444 kts 266°
2026-05-07 15:18 42.68408 -109.40587 36054 ft 445 kts 266°
2026-05-07 15:19 42.67207 -109.48858 36083 ft 447 kts 266°
2026-05-07 15:19 42.65996 -109.57183 36105 ft 449 kts 266°
2026-05-07 15:20 42.64770 -109.65557 36121 ft 450 kts 266°
2026-05-07 15:20 42.63536 -109.73927 36128 ft 450 kts 266°
2026-05-07 15:21 42.62301 -109.82254 36127 ft 450 kts 266°
2026-05-07 15:21 42.61058 -109.90605 36128 ft 451 kts 266°
2026-05-07 15:22 42.59806 -109.98971 36174 ft 452 kts 266°
2026-05-07 15:22 42.58548 -110.07339 36170 ft 453 kts 266°
2026-05-07 15:23 42.57290 -110.15649 36160 ft 453 kts 265°
2026-05-07 15:23 42.56009 -110.24076 36155 ft 453 kts 265°
2026-05-07 15:24 42.54728 -110.32455 36120 ft 453 kts 265°
2026-05-07 15:24 42.53661 -110.39409 36093 ft 453 kts 265°
2026-05-07 15:25 42.52158 -110.49138 36053 ft 454 kts 265°
2026-05-07 15:25 42.51068 -110.56162 36023 ft 453 kts 265°
2026-05-07 15:26 42.49770 -110.64497 36072 ft 451 kts 265°
2026-05-07 15:26 42.48462 -110.72864 36074 ft 455 kts 265°
2026-05-07 15:27 42.47132 -110.81289 36098 ft 456 kts 265°
2026-05-07 15:27 42.45801 -110.89708 36079 ft 455 kts 265°
2026-05-07 15:28 42.44466 -110.98085 36070 ft 455 kts 265°
2026-05-07 15:28 42.43134 -111.06429 36059 ft 455 kts 265°
2026-05-07 15:29 42.41788 -111.14819 36039 ft 455 kts 265°
2026-05-07 15:29 42.40431 -111.23230 36024 ft 457 kts 265°
2026-05-07 15:30 42.39070 -111.31613 36037 ft 457 kts 265°
2026-05-07 15:30 42.37702 -111.39998 36033 ft 456 kts 264°
2026-05-07 15:31 42.36328 -111.48387 36034 ft 456 kts 264°
2026-05-07 15:31 42.34949 -111.56766 36050 ft 457 kts 264°
2026-05-07 15:32 42.33562 -111.65144 36041 ft 457 kts 264°
2026-05-07 15:32 42.32164 -111.73552 36032 ft 456 kts 264°
2026-05-07 15:33 42.30761 -111.81953 36028 ft 455 kts 264°
2026-05-07 15:33 42.29370 -111.90243 36051 ft 456 kts 264°
2026-05-07 15:34 42.27964 -111.98589 36039 ft 458 kts 264°
2026-05-07 15:34 42.26538 -112.07004 36029 ft 459 kts 264°
2026-05-07 15:35 42.25099 -112.15451 36017 ft 458 kts 264°
2026-05-07 15:35 42.23667 -112.23831 36019 ft 459 kts 264°
2026-05-07 15:36 42.22232 -112.32181 36016 ft 459 kts 264°
2026-05-07 15:36 42.20781 -112.40592 36011 ft 460 kts 264°
2026-05-07 15:37 42.19032 -112.48940 36009 ft 467 kts 256°
2026-05-07 15:37 42.16741 -112.57143 36011 ft 467 kts 256°
2026-05-07 15:38 42.14464 -112.65340 35997 ft 468 kts 256°
2026-05-07 15:38 42.12193 -112.73567 36003 ft 467 kts 257°
2026-05-07 15:39 42.09923 -112.81792 36003 ft 467 kts 256°
2026-05-07 15:39 42.07663 -112.89964 35990 ft 467 kts 256°
2026-05-07 15:40 42.05386 -112.98164 35993 ft 467 kts 256°
2026-05-07 15:40 42.03111 -113.06329 35988 ft 467 kts 256°
2026-05-07 15:41 42.00808 -113.14567 35989 ft 468 kts 256°
2026-05-07 15:41 41.98512 -113.22752 35995 ft 467 kts 256°
2026-05-07 15:42 41.96213 -113.30919 35985 ft 467 kts 256°
2026-05-07 15:42 41.93903 -113.39060 35998 ft 463 kts 256°
2026-05-07 15:43 41.91595 -113.47233 36001 ft 469 kts 256°
2026-05-07 15:43 41.89269 -113.55450 35993 ft 469 kts 255°
2026-05-07 15:44 41.86955 -113.63567 35995 ft 468 kts 255°
2026-05-07 15:44 41.84623 -113.71714 36003 ft 468 kts 255°
2026-05-07 15:45 41.82287 -113.79857 36027 ft 469 kts 255°
2026-05-07 15:45 41.79928 -113.88053 36019 ft 469 kts 255°
2026-05-07 15:46 41.76398 -114.00263 36013 ft 469 kts 255°
2026-05-07 15:47 41.74029 -114.08428 36031 ft 470 kts 255°
2026-05-07 15:47 41.71659 -114.16578 36024 ft 471 kts 254°
2026-05-07 15:48 41.69274 -114.24749 36016 ft 472 kts 254°
2026-05-07 15:48 41.66869 -114.32957 36023 ft 472 kts 254°
2026-05-07 15:49 41.64469 -114.41124 36019 ft 472 kts 254°
2026-05-07 15:49 41.62059 -114.49300 36010 ft 473 kts 254°
2026-05-07 15:50 41.59636 -114.57495 36023 ft 474 kts 254°
2026-05-07 15:50 41.57211 -114.65671 36030 ft 473 kts 254°
2026-05-07 15:51 41.54775 -114.73863 36027 ft 474 kts 253°
2026-05-07 15:51 41.52336 -114.82035 36032 ft 475 kts 253°
2026-05-07 15:52 41.49875 -114.90250 36032 ft 475 kts 253°
2026-05-07 15:52 41.47413 -114.98444 36033 ft 474 kts 253°
2026-05-07 15:53 41.44972 -115.06548 36044 ft 475 kts 253°
2026-05-07 15:53 41.42904 -115.13395 36044 ft 475 kts 253°
2026-05-07 15:54 41.40438 -115.21537 36048 ft 475 kts 253°
2026-05-07 15:54 41.37951 -115.29717 36050 ft 476 kts 253°
2026-05-07 15:55 41.35459 -115.37889 36051 ft 476 kts 253°
2026-05-07 15:55 41.32970 -115.46029 36051 ft 476 kts 253°
2026-05-07 15:56 41.30458 -115.54219 36056 ft 476 kts 252°
2026-05-07 15:56 41.27944 -115.62391 36064 ft 477 kts 252°
2026-05-07 15:57 41.25422 -115.70562 36060 ft 477 kts 252°
2026-05-07 15:57 41.22899 -115.78709 36061 ft 477 kts 252°
2026-05-07 15:58 41.20380 -115.86822 36074 ft 477 kts 252°
2026-05-07 15:58 41.17823 -115.95032 36065 ft 478 kts 252°
2026-05-07 15:59 41.15293 -116.03127 36071 ft 478 kts 252°
2026-05-07 15:59 41.12719 -116.11342 36072 ft 478 kts 252°
2026-05-07 16:00 41.10159 -116.19486 36081 ft 478 kts 251°
2026-05-07 16:00 41.07612 -116.27565 36083 ft 479 kts 251°
2026-05-07 16:01 41.05025 -116.35748 36076 ft 479 kts 251°
2026-05-07 16:01 41.02451 -116.43861 36081 ft 478 kts 251°
2026-05-07 16:02 40.99864 -116.51992 36075 ft 478 kts 251°
2026-05-07 16:02 40.97273 -116.60117 36071 ft 479 kts 251°
2026-05-07 16:03 40.94675 -116.68234 36075 ft 480 kts 251°
2026-05-07 16:03 40.92061 -116.76378 36077 ft 480 kts 251°
2026-05-07 16:04 40.89455 -116.84472 36093 ft 480 kts 251°
2026-05-07 16:04 40.86834 -116.92590 36100 ft 480 kts 251°
2026-05-07 16:05 40.84198 -117.00727 36103 ft 480 kts 251°
2026-05-07 16:05 40.81570 -117.08819 36105 ft 481 kts 251°
2026-05-07 16:06 40.78933 -117.16914 36089 ft 481 kts 251°
2026-05-07 16:06 40.76263 -117.25086 36073 ft 482 kts 251°
2026-05-07 16:07 40.73601 -117.33209 36041 ft 482 kts 250°
2026-05-07 16:07 40.70954 -117.41262 36056 ft 482 kts 250°
2026-05-07 16:08 40.68262 -117.49432 36063 ft 483 kts 250°
2026-05-07 16:08 40.65574 -117.57561 36076 ft 483 kts 250°
2026-05-07 16:09 40.62869 -117.65721 36076 ft 483 kts 250°
2026-05-07 16:09 40.60189 -117.73780 36080 ft 484 kts 250°
2026-05-07 16:10 40.57477 -117.81913 36073 ft 484 kts 250°
2026-05-07 16:10 40.54768 -117.90012 36058 ft 485 kts 250°
2026-05-07 16:11 40.52045 -117.98132 36047 ft 486 kts 250°
2026-05-07 16:11 40.49311 -118.06261 36053 ft 485 kts 250°
2026-05-07 16:12 40.46577 -118.14363 36059 ft 485 kts 249°
2026-05-07 16:12 40.43840 -118.22456 36064 ft 485 kts 249°
2026-05-07 16:13 40.41087 -118.30577 36060 ft 486 kts 249°
2026-05-07 16:13 40.38285 -118.38677 36063 ft 487 kts 246°
2026-05-07 16:14 40.35142 -118.46507 36091 ft 489 kts 245°
2026-05-07 16:14 40.31911 -118.54399 36105 ft 490 kts 245°
2026-05-07 16:15 40.28705 -118.62266 36115 ft 490 kts 245°
2026-05-07 16:15 40.25508 -118.70132 36120 ft 490 kts 245°
2026-05-07 16:16 40.22306 -118.78000 36118 ft 490 kts 245°
2026-05-07 16:16 40.19083 -118.85895 36101 ft 490 kts 245°
2026-05-07 16:17 40.15862 -118.93762 36090 ft 490 kts 245°
2026-05-07 16:17 40.12645 -119.01599 36063 ft 491 kts 244°
2026-05-07 16:18 40.09399 -119.09484 36064 ft 491 kts 244°
2026-05-07 16:18 40.06143 -119.17379 36061 ft 492 kts 244°
2026-05-07 16:19 40.02899 -119.25221 36064 ft 492 kts 244°
2026-05-07 16:19 39.99633 -119.33100 36056 ft 492 kts 244°
2026-05-07 16:20 39.96378 -119.40934 36064 ft 492 kts 244°
2026-05-07 16:20 39.93385 -119.48943 36065 ft 491 kts 248°
2026-05-07 16:21 39.90484 -119.57033 36090 ft 491 kts 248°
2026-05-07 16:21 39.87716 -119.64710 36124 ft 492 kts 247°
2026-05-07 16:22 39.84799 -119.72736 36164 ft 492 kts 247°
2026-05-07 16:22 39.81854 -119.80797 36194 ft 492 kts 247°
2026-05-07 16:23 39.79380 -119.87547 36222 ft 493 kts 247°
2026-05-07 16:23 39.76437 -119.95559 36223 ft 492 kts 247°
2026-05-07 16:24 39.73472 -120.03616 36209 ft 492 kts 247°
2026-05-07 16:24 39.70507 -120.11645 36190 ft 493 kts 247°
2026-05-07 16:25 39.67557 -120.19622 36148 ft 493 kts 246°
2026-05-07 16:25 39.64565 -120.27680 36124 ft 493 kts 246°
2026-05-07 16:26 39.61639 -120.35539 36105 ft 493 kts 246°
2026-05-07 16:26 39.58614 -120.43648 36099 ft 493 kts 246°
2026-05-07 16:27 39.55610 -120.51678 36110 ft 493 kts 246°
2026-05-07 16:27 39.52594 -120.59716 36156 ft 493 kts 246°
2026-05-07 16:28 39.49606 -120.67660 36180 ft 494 kts 246°
2026-05-07 16:28 39.46580 -120.75683 36198 ft 494 kts 246°
2026-05-07 16:29 39.43544 -120.83708 36207 ft 494 kts 246°
2026-05-07 16:29 39.40534 -120.91648 36157 ft 493 kts 246°
2026-05-07 16:30 39.37518 -120.99585 36177 ft 493 kts 246°
2026-05-07 16:30 39.34438 -121.07510 36185 ft 494 kts 242°
2026-05-07 16:31 39.30468 -121.14789 36190 ft 496 kts 231°
2026-05-07 16:31 39.26000 -121.21490 36189 ft 497 kts 231°
2026-05-07 16:32 39.21459 -121.28376 36131 ft 497 kts 231°
2026-05-07 16:32 39.16970 -121.35233 36136 ft 497 kts 231°
2026-05-07 16:33 39.12507 -121.42052 36139 ft 497 kts 231°
2026-05-07 16:33 39.08010 -121.48905 36139 ft 497 kts 231°
2026-05-07 16:34 39.03482 -121.55787 36154 ft 497 kts 231°
2026-05-07 16:34 38.98987 -121.62603 36155 ft 497 kts 231°
2026-05-07 16:35 38.94496 -121.69398 36152 ft 498 kts 231°
2026-05-07 16:35 38.90005 -121.76180 36145 ft 498 kts 231°
2026-05-07 16:36 38.85480 -121.82998 36145 ft 498 kts 231°
2026-05-07 16:36 38.80972 -121.89776 35932 ft 502 kts 231°
2026-05-07 16:36 38.78668 -121.93238 35063 ft 517 kts 231°
2026-05-07 16:37 38.76331 -121.96744 34489 ft 516 kts 231°
2026-05-07 16:37 38.74044 -122.00167 33976 ft 509 kts 230°
2026-05-07 16:37 38.71751 -122.03596 33321 ft 504 kts 230°
2026-05-07 16:37 38.69442 -122.07043 32570 ft 501 kts 230°
2026-05-07 16:38 38.67169 -122.10437 31701 ft 501 kts 230°
2026-05-07 16:38 38.64931 -122.13775 30779 ft 503 kts 230°
2026-05-07 16:38 38.62651 -122.17173 29966 ft 501 kts 230°
2026-05-07 16:38 38.60404 -122.20518 29303 ft 494 kts 230°
2026-05-07 16:39 38.58156 -122.23859 28666 ft 488 kts 230°
2026-05-07 16:39 38.55955 -122.27128 28036 ft 482 kts 230°
2026-05-07 16:39 38.53795 -122.30333 27386 ft 478 kts 230°
2026-05-07 16:39 38.51609 -122.33575 26721 ft 475 kts 230°
2026-05-07 16:40 38.49472 -122.36740 26460 ft 463 kts 230°
2026-05-07 16:40 38.47408 -122.39793 26369 ft 448 kts 230°
2026-05-07 16:40 38.45399 -122.42761 26220 ft 435 kts 230°
2026-05-07 16:40 38.43448 -122.45652 26017 ft 425 kts 231°
2026-05-07 16:41 38.42168 -122.47553 25794 ft 421 kts 231°
2026-05-07 16:41 38.40250 -122.50406 25358 ft 418 kts 231°
2026-05-07 16:41 38.38375 -122.53196 24851 ft 417 kts 231°
2026-05-07 16:41 38.36484 -122.56005 24382 ft 416 kts 231°
2026-05-07 16:42 38.34593 -122.58811 23966 ft 414 kts 231°
2026-05-07 16:42 38.32722 -122.61585 23537 ft 411 kts 231°
2026-05-07 16:42 38.30862 -122.64338 23051 ft 408 kts 230°
2026-05-07 16:42 38.29010 -122.67078 22592 ft 405 kts 230°
2026-05-07 16:43 38.27185 -122.69774 22134 ft 402 kts 230°
2026-05-07 16:43 38.25355 -122.72453 21702 ft 398 kts 227°
2026-05-07 16:43 38.23235 -122.74617 21006 ft 397 kts 206°
2026-05-07 16:43 38.20574 -122.75583 20398 ft 398 kts 185°
2026-05-07 16:44 38.17787 -122.75495 20024 ft 393 kts 169°
2026-05-07 16:44 38.15136 -122.74771 19680 ft 388 kts 165°
2026-05-07 16:44 38.12566 -122.73982 19260 ft 386 kts 165°
2026-05-07 16:44 38.09949 -122.73176 18831 ft 385 kts 165°
2026-05-07 16:45 38.07348 -122.72389 18424 ft 382 kts 165°
2026-05-07 16:45 38.04751 -122.71617 17995 ft 380 kts 166°
2026-05-07 16:45 38.02328 -122.70906 17612 ft 377 kts 166°
2026-05-07 16:45 37.99766 -122.70162 17206 ft 373 kts 166°
2026-05-07 16:46 37.97211 -122.69422 16787 ft 371 kts 166°
2026-05-07 16:46 37.94734 -122.68707 16383 ft 368 kts 166°
2026-05-07 16:46 37.92238 -122.67986 15974 ft 366 kts 166°
2026-05-07 16:46 37.89871 -122.67129 15509 ft 356 kts 154°
2026-05-07 16:47 37.87870 -122.65380 14839 ft 353 kts 134°
2026-05-07 16:47 37.86103 -122.63231 14280 ft 351 kts 136°
2026-05-07 16:47 37.84236 -122.61209 13886 ft 350 kts 138°
2026-05-07 16:47 37.82377 -122.59266 13529 ft 345 kts 139°
2026-05-07 16:48 37.80528 -122.57334 13133 ft 343 kts 139°
2026-05-07 16:48 37.78668 -122.55374 12699 ft 341 kts 139°
2026-05-07 16:48 37.76895 -122.53499 12555 ft 331 kts 139°
2026-05-07 16:48 37.75157 -122.51661 12463 ft 320 kts 139°
2026-05-07 16:49 37.73443 -122.49850 12321 ft 310 kts 139°
2026-05-07 16:49 37.71809 -122.48116 12130 ft 304 kts 138°
2026-05-07 16:49 37.70203 -122.46406 11817 ft 302 kts 138°
2026-05-07 16:49 37.68622 -122.44721 11468 ft 301 kts 138°
2026-05-07 16:50 37.67013 -122.43008 11125 ft 301 kts 139°
2026-05-07 16:50 37.65403 -122.41296 11038 ft 297 kts 139°
2026-05-07 16:50 37.63838 -122.39635 10995 ft 299 kts 139°
2026-05-07 16:50 37.62251 -122.37952 11017 ft 299 kts 139°
2026-05-07 16:51 37.60694 -122.36226 10667 ft 306 kts 133°
2026-05-07 16:51 37.59215 -122.34167 9980 ft 305 kts 130°
2026-05-07 16:51 37.57846 -122.32192 9392 ft 294 kts 130°
2026-05-07 16:51 37.56512 -122.30324 8694 ft 289 kts 131°
2026-05-07 16:52 37.55118 -122.28448 7967 ft 286 kts 131°
2026-05-07 16:52 37.53780 -122.26665 7367 ft 280 kts 131°
2026-05-07 16:52 37.52452 -122.24908 6892 ft 271 kts 131°
2026-05-07 16:52 37.51183 -122.23243 6945 ft 260 kts 132°
2026-05-07 16:53 37.49890 -122.21547 6962 ft 271 kts 132°
2026-05-07 16:53 37.48585 -122.19834 6844 ft 272 kts 131°
2026-05-07 16:53 37.47267 -122.18109 6529 ft 271 kts 132°
2026-05-07 16:53 37.45973 -122.16418 6052 ft 269 kts 132°
2026-05-07 16:54 37.44686 -122.14733 5513 ft 266 kts 132°
2026-05-07 16:54 37.43451 -122.13106 5508 ft 248 kts 129°
2026-05-07 16:54 37.42628 -122.11187 5490 ft 257 kts 96°
2026-05-07 16:54 37.42855 -122.08964 5523 ft 260 kts 61°
2026-05-07 16:55 37.44073 -122.07329 5528 ft 258 kts 28°
2026-05-07 16:55 37.45807 -122.06636 5203 ft 265 kts
2026-05-07 16:55 37.47620 -122.06918 4898 ft 265 kts 340°
2026-05-07 16:55 37.49115 -122.08185 4553 ft 266 kts 311°
2026-05-07 16:56 37.50104 -122.10137 4250 ft 260 kts 301°
2026-05-07 16:56 37.51031 -122.12100 3936 ft 259 kts 303°
2026-05-07 16:56 37.52910 -122.15874 3309 ft 249 kts 303°
2026-05-07 16:57 37.53794 -122.17690 2979 ft 235 kts 300°
2026-05-07 16:57 37.54548 -122.19444 2713 ft 219 kts 297°
2026-05-07 16:57 37.55233 -122.21087 2464 ft 201 kts 297°
2026-05-07 16:57 37.55859 -122.22583 2307 ft 194 kts 297°
2026-05-07 16:58 37.56488 -122.24084 2095 ft 187 kts 297°
2026-05-07 16:58 37.57064 -122.25460 1859 ft 170 kts 297°
2026-05-07 16:58 37.57258 -122.25923 1771 ft 163 kts 297°
2026-05-07 16:58 37.57664 -122.26891 1649 ft 156 kts 297°
2026-05-07 16:59 37.58059 -122.27835 1467 ft 161 kts 297°
2026-05-07 16:59 37.58502 -122.28894 1276 ft 161 kts 297°
2026-05-07 16:59 37.59020 -122.30133 1043 ft 158 kts 297°
2026-05-07 16:59 37.59527 -122.31339 819 ft 155 kts 298°
2026-05-07 17:00 37.60027 -122.32535 627 ft 148 kts 297°
2026-05-07 17:00 37.60499 -122.33663 430 ft 146 kts 297°
2026-05-07 17:00 37.60969 -122.34785 236 ft 143 kts 297°
2026-05-07 17:00 37.61432 -122.35902 52 ft 143 kts 297°
2026-05-07 17:01 37.61855 -122.36940 27 ft 118 kts 298°
2026-05-07 17:01 37.62163 -122.37651 29 ft 66 kts 298°
2026-05-07 17:01 37.62310 -122.37994 27 ft 37 kts 298°
2026-05-07 17:01 37.62429 -122.38274 29 ft 34 kts 298°
2026-05-07 17:02 37.62482 -122.38401 27 ft 8 kts 293°
2026-05-07 17:02 37.62491 -122.38472 24 ft 8 kts 278°
2026-05-07 17:02 37.62499 -122.38545 26 ft 8 kts 274°
2026-05-07 17:02 37.62501 -122.38618 26 ft 8 kts 269°
2026-05-07 17:03 37.62501 -122.38627 28 ft 0 kts 269°
2026-05-07 17:06 37.62500 -122.38672 28 ft 17 kts 269°
2026-05-07 17:06 37.62481 -122.38825 27 ft 19 kts 237°
2026-05-07 17:07 37.62344 -122.38946 25 ft 14 kts 208°
2026-05-07 17:07 37.62301 -122.38975 20 ft 0 kts 206°
2026-05-07 17:07 37.62280 -122.38969 20 ft 7 kts 162°
2026-05-07 17:07 37.62232 -122.38959 20 ft 7 kts 191°
2026-05-07 17:08 37.62192 -122.38977 22 ft 1 kts 205°
2026-05-07 17:08 37.62186 -122.38980 21 ft 1 kts 205°
2026-05-07 17:08 37.62179 -122.38984 20 ft 1 kts 205°
2026-05-07 17:08 37.62171 -122.38989 22 ft 1 kts 206°
2026-05-07 17:09 37.62163 -122.38994 22 ft 1 kts 206°
2026-05-07 17:09 37.62162 -122.38994 22 ft 0 kts 206°